White Center, Washington, United States
Lat: 47.52N, Lon: 122.35W
Wx Zone: WAZ508
Local Info
Past Weather Observations for Today

NOTE: This archive is for the closest National Weather Service station to White Center. Information may differ from the station used for current weather conditions.

Click here for Long-term Archive

Time Weather Temperature Dewpoint Humidity Pressure Winds Precip Visibility
16:53
Overcast
54°F / 12°C 48°F / 9°C 82% 30.12 in
(1020 mb)
SE 3.5 mph
(SE 6 kph)
- 7SM
15:53
Overcast
Hazy
54°F / 12°C 48°F / 9°C 82% 30.12 in
(1020 mb)
S 4.6 mph
(S 7 kph)
- 5SM
15:15
Overcast
Hazy
54°F / 12°C 48°F / 9°C 82% 30.12 in
(1020 mb)
S 4.6 mph
(S 7 kph)
- 3SM
14:53
Overcast
Fog And Mist
54°F / 12°C 48°F / 9°C 82% 30.12 in
(1020 mb)
S 4.6 mph
(S 7 kph)
- 2 1/2SM
14:40
Overcast
Hazy
54°F / 12°C 48°F / 9°C 82% 30.12 in
(1020 mb)
SSE 3.5 mph
(SSE 6 kph)
- 2 1/2SM
13:53
Overcast
54°F / 12°C 48°F / 9°C 82% 30.09 in
(1019 mb)
SW 6.9 mph
(SW 11 kph)
- 10SM
12:53
Overcast
54°F / 12°C 48°F / 9°C 82% 30.09 in
(1019 mb)
S 6.9 mph
(S 11 kph)
- 8SM
12:07
Overcast
Hazy
54°F / 12°C 48°F / 9°C 82% 30.09 in
(1019 mb)
Variable 4.6 mph
(Variable 7 kph)
- 3SM
11:53
Overcast
Fog And Mist
52°F / 11°C 48°F / 9°C 88% 30.09 in
(1019 mb)
SW 6.9 mph
(SW 11 kph)
- 2SM
11:18
Overcast
Hazy
54°F / 12°C 48°F / 9°C 82% 30.09 in
(1019 mb)
SSE 8.1 mph
(SSE 13 kph)
- 5SM
11:00
Overcast
Hazy
54°F / 12°C 48°F / 9°C 82% 30.09 in
(1019 mb)
SSE 4.6 mph
(SSE 7 kph)
- 2 1/2SM
10:53
Mostly Cloudy
Fog And Mist
52°F / 11°C 48°F / 9°C 88% 30.09 in
(1019 mb)
SE 4.6 mph
(SE 7 kph)
0.01 in
(0.25 mm)
1 1/2SM
10:32
Overcast
Light Rain
52°F / 11°C 48°F / 9°C 88% 30.09 in
(1019 mb)
SSE 5.8 mph
(SSE 9 kph)
0.00 in
(0.00 mm)
2SM
10:28
Overcast
Light Rain
52°F / 11°C 46°F / 8°C 82% 30.09 in
(1019 mb)
SE 4.6 mph
(SE 7 kph)
0.00 in
(0.00 mm)
1 3/4SM
09:53
Overcast
54°F / 12°C 46°F / 8°C 77% 30.06 in
(1018 mb)
SE 8.1 mph
(SE 13 kph)
- 10SM
08:53
Overcast
52°F / 11°C 46°F / 8°C 82% 30.06 in
(1018 mb)
SSE 10.4 mph
(SSE 17 kph)
- 8SM
07:53
Overcast
52°F / 11°C 46°F / 8°C 82% 30.04 in
(1017 mb)
SE 9.2 mph
(SE 15 kph)
- 10SM
06:53
Overcast
52°F / 11°C 46°F / 8°C 82% 30.04 in
(1017 mb)
SE 6.9 mph
(SE 11 kph)
- 10SM
05:53
Overcast
52°F / 11°C 46°F / 8°C 82% 30.01 in
(1016 mb)
SE 5.8 mph
(SE 9 kph)
- 10SM
04:53
Overcast
52°F / 11°C 46°F / 8°C 82% 30.01 in
(1016 mb)
SE 6.9 mph
(SE 11 kph)
- 10SM
03:53
Mostly Cloudy
52°F / 11°C 46°F / 8°C 82% 30.01 in
(1016 mb)
SE 6.9 mph
(SE 11 kph)
- 10SM
03:51
Mostly Cloudy
52°F / 11°C 46°F / 8°C 82% 30.01 in
(1016 mb)
SE 8.1 mph
(SE 13 kph)
- 10SM
03:41
Partly Cloudy
52°F / 11°C 46°F / 8°C 82% 30.01 in
(1016 mb)
SSE 6.9 mph
(SSE 11 kph)
- 10SM
02:53
Overcast
54°F / 12°C 46°F / 8°C 77% 30.01 in
(1016 mb)
SSE 5.8 mph
(SSE 9 kph)
- 10SM
01:53
Overcast
52°F / 11°C 46°F / 8°C 82% 30.01 in
(1016 mb)
SE 4.6 mph
(SE 7 kph)
- 10SM
00:53
Mostly Cloudy
50°F / 10°C 46°F / 8°C 88% 29.98 in
(1015 mb)
SSE 5.8 mph
(SSE 9 kph)
- 10SM
Time Weather Temperature Dewpoint Humidity Pressure Winds Precip Visibility


Weather for websites

WeatherForYou.com, LLC is not responsible for any damages or problems caused by this service. Current weather conditions are obtained from the closest station including government and personal stations which may have varying degrees of accuracy. Weather forecasts are derived from the NOAA NDFD. Like all things, this site belongs to Jesus Christ... He just trusts me to maintain it. If you have any questions or comments email webmaster@weatherforyou.com

Copyright © 2015, WeatherForYou.com LLC. All rights reserved.